TimeMDT,TemperatureF,Dew PointF,Humidity,Sea Level PressureIn,VisibilityMPH,Wind Direction,Wind SpeedMPH,Gust SpeedMPH,PrecipitationIn,Events,Conditions,WindDirDegrees,DateUTC
12:54 AM,41.0,37.9,89,30.17,10.0,SSE,4.6,-,N/A,,Clear,150,2012-06-16 06:54:00
1:54 AM,39.9,37.0,89,30.17,10.0,ESE,5.8,-,N/A,,Clear,120,2012-06-16 07:54:00
2:54 AM,41.0,37.0,86,30.16,10.0,SE,4.6,-,N/A,,Clear,140,2012-06-16 08:54:00
3:54 AM,37.9,36.0,93,30.16,10.0,ESE,4.6,-,N/A,,Clear,120,2012-06-16 09:54:00
4:54 AM,37.9,35.1,89,30.15,10.0,SE,6.9,-,N/A,,Clear,140,2012-06-16 10:54:00
5:54 AM,39.0,36.0,89,30.14,10.0,SE,6.9,-,N/A,,Clear,140,2012-06-16 11:54:00
6:54 AM,44.1,39.0,82,30.12,10.0,ESE,6.9,-,N/A,,Clear,110,2012-06-16 12:54:00
7:54 AM,50.0,43.0,77,30.09,10.0,ESE,4.6,-,N/A,,Clear,110,2012-06-16 13:54:00
8:54 AM,61.0,41.0,48,30.06,10.0,SW,17.3,-,N/A,,Clear,220,2012-06-16 14:54:00
9:54 AM,63.0,37.9,40,30.05,10.0,WSW,16.1,-,N/A,,Clear,240,2012-06-16 15:54:00
10:54 AM,66.0,37.9,36,30.02,10.0,WSW,13.8,19.6,N/A,,Clear,250,2012-06-16 16:54:00
11:54 AM,69.1,37.0,31,30.00,10.0,West,11.5,-,N/A,,Clear,270,2012-06-16 17:54:00
12:54 PM,71.1,36.0,28,29.99,10.0,West,9.2,-,N/A,,Clear,280,2012-06-16 18:54:00
1:54 PM,70.0,36.0,29,29.99,10.0,WNW,10.4,-,N/A,,Clear,300,2012-06-16 19:54:00
2:54 PM,72.0,35.1,26,29.95,10.0,NW,8.1,-,N/A,,Clear,310,2012-06-16 20:54:00
3:54 PM,73.9,32.0,21,29.93,10.0,WNW,20.7,24.2,N/A,,Clear,300,2012-06-16 21:54:00
4:54 PM,75.0,33.1,22,29.91,10.0,NW,10.4,-,N/A,,Clear,320,2012-06-16 22:54:00
6:54 PM,71.1,34.0,26,29.87,10.0,WNW,12.7,-,N/A,,Partly Cloudy,300,2012-06-17 00:54:00
7:54 PM,64.9,44.1,47,29.86,10.0,WSW,9.2,-,N/A,,Partly Cloudy,240,2012-06-17 01:54:00
8:54 PM,60.1,46.0,60,29.83,10.0,WSW,9.2,-,N/A,,Clear,250,2012-06-17 02:54:00
9:54 PM,62.1,39.9,44,29.81,10.0,Calm,Calm,-,N/A,,Partly Cloudy,0,2012-06-17 03:54:00
10:54 PM,57.0,39.9,53,29.79,10.0,SW,9.2,-,N/A,,Clear,220,2012-06-17 04:54:00
11:54 PM,57.0,41.0,55,29.77,10.0,SW,6.9,-,N/A,,Clear,220,2012-06-17 05:54:00